リニア彗星

C/2007 G1 ( LINEAR )

English version
Home page
Updated on September 3, 2011

---------------------------------------------------------------------

・ プロフィール

発見日 2007年4月10日
発見光度 18.6等
発見者 Lincoln Laboratory Near-Earth Asteroid Research project

・ 写真集

・ 軌道要素

The following orbital elements are taken from MPC 66464:

Epoch 2008 Nov. 30.0 TT = JDT 2454800.5
T 2008 Nov. 16.3160 TT                                  MPC
q   2.647085             (2000.0)            P               Q
z  -0.000647       Peri.  223.9845      -0.1174945      +0.1531425
 +/-0.000000       Node    78.9951      -0.3754319      +0.9078609
e   1.001713       Incl.   88.3307      -0.9193726      -0.3903025
From 1837 observations 2007 Apr. 10-2009 May 16, mean residual 0".5.

・ 星図

・ 光度変化

        m1 = 4.5 + 5 logΔ + 12.0 log r(t + 50)

---------------------------------------------------------------------

軌道要素はMPCのEphemerides and Orbital Elementsに掲載されたものです。
星図は StellaNavigator Ver.2.0 for Windows (アストロアーツ 編著 / アスキー出版局刊) で作成したものです。
光度グラフはComet for Windowsで作成したものです。

---------------------------------------------------------------------

Copyright(C) Seiichi Yoshida (comet@aerith.net). All rights reserved.